Location: Edmonton
(53.5500°N, 113.5000°W)
Time: 19:02:19
(UTC-06:00)

Daily predictions for brighter satellites

Satellite Brightness Start Highest point End
(mag) Time Altitude Azimuth Time Altitude Azimuth Time Altitude Azimuth
Cosmos 2333 Rocket 2.4 21:19:44 10° S 21:25:09 49° ESE 21:30:35 10° NE
SL-16 R/B 4.2 21:22:29 10° WSW 21:27:36 33° NW 21:32:45 10° NNE
Meteor 1-27 4.3 21:23:16 10° S 21:28:54 64° E 21:34:29 10° NNE
COSMOS 2428 2.7 21:24:32 10° SSW 21:30:16 80° ESE 21:36:01 10° NE
Meteor 2-21 Rocket 4.5 21:24:31 10° S 21:30:40 80° E 21:36:53 10° NNE
YAOGAN 6 3.5 21:27:10 10° S 21:30:43 50° W 21:34:19 10° NNW
Cosmos 2333 4.2 21:26:08 10° SSW 21:31:47 84° ESE 21:37:26 10° NNE
SL-8 Rocket 4.2 21:28:49 10° SSE 21:34:52 52° E 21:40:56 10° NNE
Cosmos 1633 Rocket 4.1 21:33:33 10° NNW 21:37:44 47° W 21:41:54 10° SSW
MetOp-A 4.4 21:33:39 10° SE 21:38:51 56° ENE 21:44:06 10° N
Cosmos 2219 Rocket 2.2 21:33:42 10° SSW 21:39:19 69° ESE 21:44:56 10° NE
Cosmos 2237 Rocket 2.6 21:36:22 10° S 21:41:34 40° ESE 21:46:48 10° NE
Cosmos 1862 4.3 21:38:18 10° N 21:41:59 32° ENE 21:45:27 11° SE
Cosmos 2322 Rocket 4.4 21:38:30 10° W 21:43:26 29° NW 21:48:23 10° NNE
Cosmos 2278 Rocket 2.7 21:39:09 10° NW 21:44:46 62° WSW 21:50:21 10° SSE
Cosmos 2056 Rocket 4.4 21:41:59 10° SSE 21:46:33 29° E 21:51:06 10° NE
ATLAS 5 CENTAUR R/B 3.3 21:42:25 10° NW 21:47:28 39° NNE 21:53:10 10° E
Cosmos 405 3.3 21:44:51 10° N 21:48:17 47° ENE 21:51:27 11° SSE
Helios 1A 3.9 21:45:20 11° SE 21:48:53 33° ENE 21:52:40 10° N
Terra 3.5 21:48:24 10° ESE 21:51:54 21° NE 21:55:23 10° N
Cosmos 1340 4.2 21:48:44 10° SW 21:52:19 40° WNW 21:55:57 10° N
Cosmos 405 Rocket 4.3 21:50:12 12° SE 21:52:28 19° E 21:55:20 10° NE
USA 234 3.5 21:47:02 10° E 21:53:33 70° N 22:00:03 10° WNW
Cosmos 2098 Rocket 3.3 21:49:54 10° SSE 21:53:57 38° E 21:57:16 10° NNE
Cosmos 1515 Rocket 3.5 21:51:06 10° S 21:55:33 77° E 22:00:03 10° NNE
Thor Agena Rocket 4.1 21:54:00 10° NNE 21:59:10 64° WNW 22:04:22 10° SSW
Cosmos 1825 2.5 21:56:06 10° NNW 21:59:53 67° W 22:03:38 10° S
Cosmos 1190 Rocket 4.0 21:54:54 10° NNW 22:00:15 86° ENE 22:05:14 12° SSE
Cosmos 2228 Rocket 3.0 21:56:35 10° S 22:00:59 86° E 22:05:26 10° NNE
Cosmos 1140 Rocket 3.8 21:57:53 10° NNW 22:03:00 53° ENE 22:07:09 15° SE
Cosmos 1624 Rocket 4.5 21:58:37 10° S 22:03:22 38° ESE 22:08:10 10° NE
Lacrosse 5 2.2 21:59:38 10° WNW 22:04:42 65° NNE 22:09:43 10° E
Cosmos 864 Rocket 4.5 22:00:14 10° S 22:06:15 62° E 22:12:20 10° NNE
SPOT 5 3.2 22:07:48 16° SE 22:11:12 45° ENE 22:15:25 10° N
USA 245 2.6 22:11:31 24° SE 22:12:37 42° ENE 22:14:49 10° N
Cosmos 1954 Rocket 4.1 22:07:51 10° NNW 22:13:04 63° ENE 22:17:03 17° SE
Cosmos 1328 Rocket 4.4 22:09:59 10° SSW 22:14:19 53° WNW 22:18:42 10° N
ATLAS CENTAUR R/B 1.0 22:11:28 10° SW 22:15:11 72° SE 22:19:08 10° NE
NOSS 2-1 (C) 3.8 22:12:13 10° WSW 22:15:59 67° NW 22:20:35 10° NE
BREEZE-M DEB (TANK) 4.2 22:14:33 10° W 22:16:34 15° SW 22:17:44 12° S
NOSS 2-1 (D) 3.9 22:13:13 10° WSW 22:16:59 65° NW 22:21:35 10° NE
Lacrosse 4 Rocket 4.4 22:15:56 10° NW 22:18:02 13° N 22:20:09 10° NNE
Meteor 1-4 Rocket 4.4 22:16:16 10° NNE 22:18:35 16° ENE 22:19:57 14° E
ATLAS 2AS CENTAUR R/B 4.3 22:12:05 10° NW 22:18:54 33° WSW 22:25:19 10° S
Resurs 01 Rocket 3.9 22:21:44 10° SW 22:25:17 23° W 22:28:51 10° NW
SL-16 R/B 2.6 22:26:32 10° S 22:31:48 42° ESE 22:37:06 10° NE
Cosmos 1933 4.1 22:30:16 23° SE 22:32:01 33° E 22:35:42 10° NNE
Cosmos 1943 Rocket 3.2 22:27:08 10° NNW 22:32:09 34° NE 22:36:08 15° E
BREEZE M DEB (TANK) 4.3 22:14:42 10° WSW 22:32:18 59° S 22:36:54 12° E
CZ-2C R/B 4.1 22:30:14 17° ESE 22:32:54 28° ENE 22:37:00 10° N
Meteor 1-29 4.5 22:30:40 10° NE 22:33:13 19° E 22:33:15 19° E
ARGOS 3.6 22:29:56 10° S 22:35:13 61° WSW 22:40:33 10° NNW
Cosmos 1869 3.6 22:32:36 10° SSW 22:36:36 68° WNW 22:40:39 10° N
Cosmos 1727 Rocket 4.2 22:30:32 10° NNW 22:36:41 70° W 22:42:49 10° S
MetOp-B 4.5 22:32:28 11° S 22:37:35 64° WSW 22:42:55 10° NNW
SL-08 RB Rocket 4.0 22:34:41 14° S 22:38:31 65° WSW 22:42:59 10° NNW
DMSP B5D2-2 4.4 22:36:55 10° NNE 22:41:59 46° E 22:45:19 20° SSE
SL-19 R/B 4.3 22:39:18 21° SSE 22:43:10 76° ENE 22:48:50 10° NNW
Cosmos 1821 Rocket 4.3 22:42:14 19° SSE 22:46:37 50° E 22:52:39 10° NNE
USA 81 4.4 22:43:40 10° NNW 22:48:54 64° W 22:53:44 12° S
Cosmos 614 Rocket 4.1 22:44:17 10° NNW 22:49:31 74° WSW 22:52:50 23° SSE
NOSS 3-4 (A) 4.4 22:43:22 10° NW 22:50:00 49° SW 22:55:21 18° SSE
NOSS 3-4 (C) 4.4 22:43:28 10° NW 22:50:06 50° SW 22:55:26 18° SSE
Cosmos 407 Rocket 4.4 22:45:52 10° NW 22:50:41 42° WSW 22:54:45 14° S
Meteor 2-10 Rocket 3.9 22:45:18 10° SSW 22:51:05 81° WNW 22:56:58 10° NNE
Meteor 1-14 Rocket 4.5 22:48:13 10° N 22:53:39 53° ENE 22:56:35 26° SE
SPOT 1/Viking Rocket 3.6 22:50:16 22° SSE 22:53:46 87° WSW 22:59:02 10° NNW
ERS-1 Rocket 3.5 22:50:08 15° S 22:54:15 55° W 22:59:13 10° NNW
NOSS 0 Rocket 4.3 22:49:48 10° SW 22:55:58 67° NW 23:02:11 10° NNE
Cosmos 2123 Rocket 4.2 22:50:40 10° N 22:56:56 59° ENE 23:00:33 26° SE
Cosmos 1606 4.4 22:57:11 19° E 22:57:11 19° E 22:59:57 10° NE
Cosmos 1980 4.1 22:52:28 10° SW 22:58:06 65° NW 23:03:48 10° NNE
Cosmos 1441 Rocket 3.1 22:55:37 20° SSW 22:58:08 88° WNW 23:01:56 10° NNE
USA 267 3.9 22:53:14 10° ENE 22:58:55 31° SE 23:04:35 10° SSW
Helios 1B rocket 2.6 22:55:56 10° NNE 22:59:59 51° E 23:01:31 33° SSE
Cosmos 921 Rocket 4.4 23:01:46 21° E 23:01:46 21° E 23:04:49 10° NE
H-2A R/B 2.8 22:57:48 13° S 23:02:04 45° W 23:06:50 10° NNW
NOSS 3-3 (C) 4.5 22:56:11 10° WSW 23:02:27 67° NW 23:09:28 10° NE
Cosmos 2369 Rocket 2.4 22:58:22 10° NNW 23:04:03 63° NE 23:07:06 28° SE
Cosmos 2344 3.9 22:57:24 10° S 23:04:29 44° ESE 23:12:32 10° NE
GENESIS II 4.2 23:00:40 10° NW 23:04:38 79° NE 23:06:02 39° SE
Cosmos 1371 Rocket 4.4 23:01:32 10° SW 23:06:51 68° WNW 23:12:14 10° NNE
Cosmos 2333 Rocket 3.5 23:04:12 10° WSW 23:09:33 42° NW 23:14:56 10° NNE
Cosmos 1707 Rocket 3.5 23:07:10 22° SSW 23:09:58 86° WNW 23:14:19 10° N
Landsat 7 3.9 23:08:51 28° S 23:11:23 77° WSW 23:16:11 10° NNW
Spot 1 4.4 23:09:06 27° S 23:11:45 75° WSW 23:16:27 10° NNW
Cosmos 2098 4.4 23:16:42 43° SSW 23:17:36 73° W 23:21:08 10° N
Meteor 1-25 Rocket 4.2 23:12:42 10° NNW 23:18:31 76° ENE 23:21:15 32° SSE
CZ-2C R/B 3.6 23:15:29 10° NNE 23:20:05 28° E 23:21:04 27° ESE
RESURS DK-1 2.6 23:16:45 10° NNW 23:20:54 62° NE 23:22:09 41° ESE
YAOGAN 11 4.0 23:21:54 41° SSE 23:23:24 90° NNW 23:27:45 10° NNW
Cosmos 1437 Rocket 2.8 23:19:34 10° NNW 23:23:25 69° W 23:24:37 42° S
Cosmos 1733 Rocket 3.0 23:19:01 10° NNW 23:23:27 82° W 23:25:03 39° S
Cosmos 2219 Rocket 4.0 23:18:41 10° WSW 23:23:45 32° NW 23:28:49 10° NNE
Helios 1A 4.3 23:21:58 18° SSW 23:24:27 34° W 23:28:19 10° NNW
Cosmos 2237 Rocket 3.2 23:20:09 10° WSW 23:25:35 48° NW 23:31:05 10° NNE
Sich 1 Rocket 4.3 23:21:48 10° N 23:26:10 41° ENE 23:27:23 34° ESE
CARTOSAT-1 3.7 23:25:40 37° S 23:27:18 71° WSW 23:31:38 10° NNW
Cosmos 405 Rocket 3.6 23:25:20 16° SW 23:28:10 48° WNW 23:32:03 10° N
Cosmos 2056 Rocket 4.1 23:23:02 10° SW 23:28:23 59° WNW 23:33:44 10° NNE
Meteor 1-26 Rocket 4.2 23:25:58 32° S 23:28:31 66° E 23:34:03 10° NNE
Cosmos 1452 Rocket 3.4 23:26:08 26° S 23:29:07 71° ESE 23:34:23 10° NNE
Terra 1.8 23:27:10 35° S 23:29:09 77° WSW 23:33:57 10° NNW
CZ-4C R/B 2.6 23:29:46 36° SE 23:30:34 37° ESE 23:36:08 10° NE
ATLAS 5 CENTAUR R/B 2.3 23:27:04 10° NW 23:32:46 89° SW 23:35:41 34° SE
Spot 4 4.1 23:34:00 39° SE 23:35:30 58° ENE 23:40:12 10° N
Cosmos 1461 3.6 23:30:51 10° NW 23:35:36 57° NE 23:37:30 33° ESE
USA 234 3.2 23:32:58 29° SE 23:36:36 76° SSW 23:43:10 10° WNW
Cosmos 1605 Rocket 4.2 23:34:09 33° SSE 23:36:53 58° E 23:43:10 10° NNE
Cosmos 1850 Rocket 4.3 23:36:38 10° NNW 23:41:44 59° WSW 23:43:40 36° S
Okean 2 Rocket 4.2 23:37:57 10° N 23:41:55 31° ENE 23:42:47 28° E
Meteor 1-20 Rocket 4.2 23:39:01 10° NNW 23:44:30 77° W 23:46:43 37° S
Cosmos 1782 Rocket 4.0 23:40:50 10° N 23:45:12 49° ENE 23:46:02 43° ESE
Meteor 2-17 Rocket 4.4 23:42:25 33° S 23:45:20 76° E 23:51:29 10° NNE
Lacrosse 5 1.9 23:42:45 10° WNW 23:47:45 60° SW 23:48:54 47° SSE
Cosmos 1633 2.8 23:44:35 10° NNW 23:48:07 56° W 23:48:31 52° SW
Cosmos 1447 Rocket 4.4 23:41:59 10° N 23:48:09 74° ENE 23:50:35 39° SSE
SPOT 5 4.3 23:47:02 18° SW 23:49:28 27° W 23:53:17 10° NW
Cosmos 1741 Rocket 4.4 23:44:21 10° NNW 23:49:34 54° WSW 23:51:29 35° SSW
IGS 5A 4.3 23:48:26 32° SW 23:49:46 43° W 23:53:47 10° NNW
Cosmos 2242 Rocket 3.5 23:49:36 45° SSW 23:50:55 82° WNW 23:55:22 10° N
SeaSat 1 3.5 23:48:48 24° E 23:51:07 39° NE 23:55:42 10° NNW
Meteor 1-4 Rocket 2.9 23:50:36 10° NNW 23:54:00 50° W 23:54:13 49° WSW
ATLAS CENTAUR R/B 3.4 23:51:11 10° W 23:54:32 28° NNW 23:58:05 10° NE
